Date String (YYYY-MM-DD hh:mm:ss) UTC,Instrument flags,Ambient pressure (hPa),Sample flow (lpm),Bypass flow (lpm),Sample temperature (°C),Ambient temperature (°C),ASC tube jacket temperature (°C),LED temperature (°C),Box temperature (°C),Sample RH (%),Span deviation,Mass concentration (μg/m³),Mass concentration (μg/m³),Mass concentration (μg/m³)
DateTimeUTC,F1_M11,P_M11,Q1_M11,Q2_M11,T1_M11,T2_M11,T3_M11,T4_M11,T5_M11,U1_M11,ZSPAN_M11,X2_M11,X0_M11,X1_M11
2021-11-24 11:00:00,,0818.1,5.01,0.00,25.0,24.2,00.0,34.1,26.8,11.9,0000.0,0002.65,0005.77,0001.69
2021-11-24 11:01:00,,0818.1,4.99,0.00,25.1,24.2,00.0,34.1,26.8,12.0,0000.0,0002.59,0005.66,0001.69
2021-11-24 11:02:00,,0818.1,5.00,0.00,25.1,24.3,00.0,34.1,26.9,11.9,0000.0,0002.52,0005.34,0001.68
2021-11-24 11:03:00,,0818.2,5.00,0.00,25.1,24.3,00.0,34.1,26.9,11.9,0000.0,0002.51,0005.27,0001.68
2021-11-24 11:04:00,,0818.2,5.02,0.00,25.1,24.3,00.0,34.1,26.9,11.9,0000.0,0002.53,0005.29,0001.68
2021-11-24 11:05:00,,0818.2,4.99,0.00,25.1,24.3,00.0,34.1,27.0,11.8,0000.0,0002.51,0005.08,0001.69
2021-11-24 11:06:00,,0818.2,5.00,0.00,25.1,24.4,00.0,34.1,26.9,11.7,0000.0,0002.53,0005.21,0001.71
2021-11-24 11:07:00,,0818.2,5.01,0.00,25.1,24.4,00.0,34.1,27.0,11.7,0000.0,0002.49,0005.24,0001.72
2021-11-24 11:08:00,,0818.3,4.99,0.00,25.1,24.4,00.0,34.1,27.0,11.7,0000.0,0002.49,0005.19,0001.73
2021-11-24 11:09:00,,0818.3,5.01,0.00,25.1,24.4,00.0,34.1,27.0,11.7,0000.0,0002.54,0004.59,0001.75
2021-11-24 11:10:00,,0818.3,5.01,0.00,25.1,24.4,00.0,34.1,27.0,11.6,0000.0,0002.58,0004.64,0001.77
2021-11-24 11:11:00,,0818.3,4.99,0.00,25.1,24.4,00.0,34.1,27.0,11.7,0000.0,0002.52,0004.92,0001.79
2021-11-24 11:12:00,,0818.4,5.00,0.00,25.1,24.4,00.0,34.1,27.0,11.8,0000.0,0002.55,0005.86,0001.80
2021-11-24 11:13:00,,0818.4,5.00,0.00,25.1,24.4,00.0,34.1,27.0,11.9,0000.0,0002.61,0006.16,0001.81
2021-11-24 11:14:00,,0818.4,5.00,0.00,25.1,24.4,00.0,34.1,26.9,12.3,0000.0,0002.59,0006.93,0001.82
2021-11-24 11:15:00,,0818.4,5.02,0.00,25.1,24.4,00.0,34.1,26.9,12.3,0000.0,0002.58,0006.85,0001.82
2021-11-24 11:16:00,,0818.4,4.99,0.00,25.1,24.4,00.0,34.1,27.0,12.3,0000.0,0002.64,0007.14,0001.82
2021-11-24 11:17:00,,0818.4,4.99,0.00,25.1,24.4,00.0,34.1,27.0,12.2,0000.0,0002.68,0007.64,0001.83
2021-11-24 11:18:00,,0818.4,5.00,0.00,25.1,24.4,00.0,34.1,26.9,11.5,0000.0,0002.75,0007.75,0001.87
2021-11-24 11:19:00,,0818.5,5.00,0.00,25.1,24.4,00.0,34.1,26.9,10.3,0000.0,0002.93,0007.99,0001.98
2021-11-24 11:20:00,,0818.5,5.01,0.00,25.1,24.3,00.0,34.1,26.9,10.0,0000.0,0003.14,0009.13,0002.14
2021-11-24 11:21:00,,0818.5,5.00,0.00,25.1,24.3,00.0,34.1,26.9,09.8,0000.0,0003.33,0009.74,0002.32
2021-11-24 11:22:00,,0818.5,5.00,0.00,25.1,24.3,00.0,34.1,26.9,09.8,0000.0,0003.50,0010.24,0002.49
2021-11-24 11:23:00,,0818.5,5.00,0.00,25.1,24.3,00.0,34.1,26.9,09.7,0000.0,0003.67,0010.31,0002.67
2021-11-24 11:24:00,,0818.5,5.00,0.00,25.0,24.3,00.0,34.1,26.9,09.5,0000.0,0003.82,0010.52,0002.83
2021-11-24 11:25:00,,0818.6,5.00,0.00,25.0,24.3,00.0,34.1,26.8,09.5,0000.0,0004.02,0010.40,0003.02
2021-11-24 11:26:00,,0818.7,5.02,0.00,25.0,24.3,00.0,34.1,26.8,09.4,0000.0,0004.19,0010.77,0003.16
2021-11-24 11:27:00,,0818.7,4.99,0.00,25.0,24.3,00.0,34.1,26.8,09.4,0000.0,0004.35,0011.56,0003.25
2021-11-24 11:28:00,,0818.7,5.00,0.00,25.0,24.3,00.0,34.1,26.8,09.4,0000.0,0004.45,0012.01,0003.34
2021-11-24 11:29:00,,0818.8,4.99,0.00,25.0,24.4,00.0,34.1,26.8,09.4,0000.0,0004.60,0013.15,0003.42
2021-11-24 11:30:00,,0818.8,4.99,0.00,25.1,24.4,00.0,34.1,26.8,09.3,0000.0,0004.69,0013.90,0003.45
2021-11-24 11:31:00,,0818.9,5.00,0.00,25.1,24.4,00.0,34.1,26.8,09.3,0000.0,0004.70,0013.40,0003.46
2021-11-24 11:32:00,,0818.8,5.01,0.00,25.1,24.4,00.0,34.1,26.8,09.3,0000.0,0004.67,0013.12,0003.45
2021-11-24 11:33:00,,0818.8,4.99,0.00,25.0,24.4,00.0,34.1,26.8,09.2,0000.0,0004.70,0012.96,0003.45
2021-11-24 11:34:00,,0818.8,5.00,0.00,25.1,24.4,00.0,34.1,26.9,09.2,0000.0,0004.68,0012.83,0003.45
2021-11-24 11:35:00,,0818.8,5.00,0.00,25.0,24.3,00.0,34.1,26.8,09.3,0000.0,0004.72,0013.05,0003.46
2021-11-24 11:36:00,,0818.8,5.00,0.00,25.0,24.3,00.0,34.1,26.8,09.4,0000.0,0004.68,0012.94,0003.45
2021-11-24 11:37:00,,0818.8,4.98,0.00,25.0,24.3,00.0,34.1,26.8,09.5,0000.0,0004.70,0013.33,0003.46
2021-11-24 11:38:00,,0818.9,5.00,0.00,25.0,24.3,00.0,34.1,26.8,09.6,0000.0,0004.66,0013.36,0003.46
2021-11-24 11:39:00,,0818.9,5.01,0.00,25.0,24.2,00.0,34.1,26.8,09.7,0000.0,0004.69,0012.92,0003.46
2021-11-24 11:40:00,,0818.9,4.99,0.00,25.0,24.2,00.0,34.1,26.8,09.8,0000.0,0004.71,0012.50,0003.46
2021-11-24 11:41:00,,0818.9,5.00,0.00,25.0,24.2,00.0,34.1,26.8,09.8,0000.0,0004.67,0012.38,0003.47
2021-11-24 11:42:00,,0818.9,5.00,0.00,24.9,24.2,00.0,34.0,26.7,09.9,0000.0,0004.68,0012.37,0003.47
2021-11-24 11:43:00,,0819.0,5.00,0.00,25.0,24.2,00.0,34.0,26.7,09.9,0000.0,0004.66,0012.58,0003.48
2021-11-24 11:44:00,,0818.9,4.99,0.00,25.0,24.2,00.0,34.0,26.7,09.9,0000.0,0004.63,0012.38,0003.49
2021-11-24 11:45:00,,0818.9,5.00,0.00,25.0,24.3,00.0,34.0,26.7,09.9,0000.0,0004.62,0013.29,0003.49
2021-11-24 11:46:00,,0818.9,5.00,0.00,25.0,24.3,00.0,34.0,26.8,10.0,0000.0,0004.60,0013.79,0003.49
2021-11-24 11:47:00,,0819.0,5.00,0.00,25.0,24.3,00.0,34.0,26.8,10.2,0000.0,0004.62,0013.94,0003.48
2021-11-24 11:48:00,,0818.9,4.99,0.00,25.0,24.3,00.0,34.0,26.8,10.3,0000.0,0004.63,0013.90,0003.48
2021-11-24 11:49:00,,0819.0,5.01,0.00,25.0,24.3,00.0,34.0,26.8,10.6,0000.0,0004.62,0013.33,0003.46
2021-11-24 11:50:00,,0818.9,5.01,0.00,25.0,24.3,00.0,34.0,26.8,10.6,0000.0,0004.65,0014.65,0003.46
2021-11-24 11:51:00,,0818.9,4.98,0.00,25.0,24.2,00.0,34.0,26.7,10.5,0000.0,0004.66,0014.89,0003.45
2021-11-24 11:52:00,,0818.9,5.00,0.00,24.9,24.2,00.0,34.0,26.7,10.5,0000.0,0004.64,0014.69,0003.44
2021-11-24 11:53:00,,0818.9,5.00,0.00,24.9,24.2,00.0,34.0,26.7,10.6,0000.0,0004.60,0015.19,0003.44
2021-11-24 11:54:00,,0818.9,5.00,0.00,24.9,24.2,00.0,34.0,26.7,10.7,0000.0,0004.59,0015.12,0003.43
2021-11-24 11:55:00,,0819.0,5.00,0.00,24.9,24.2,00.0,34.0,26.7,10.7,0000.0,0004.60,0015.42,0003.42
2021-11-24 11:56:00,,0818.9,4.99,0.00,24.9,24.2,00.0,34.0,26.7,10.8,0000.0,0004.62,0014.76,0003.42
2021-11-24 11:57:00,,0819.0,4.99,0.00,24.9,24.2,00.0,34.0,26.7,10.7,0000.0,0004.61,0014.03,0003.41
2021-11-24 11:58:00,,0819.0,5.00,0.00,24.9,24.2,00.0,34.0,26.7,10.6,0000.0,0004.65,0015.37,0003.41
2021-11-24 11:59:00,,0819.0,5.00,0.00,24.9,24.1,00.0,34.0,26.7,10.5,0000.0,0004.64,0016.62,0003.43
